GEFSMA_con_probscp_306.txt.gz
Probability
0 2 5 6 5 5 5 5 5 5 5 5 5 5 5 6 6 6 6 8 9 8 4 1 1 1 1 1 2 3 3 2 2 1 0 0 0 1 2 2 2 1 1
1 3 4 4 4 4 4 4 4 4 4 4 4 4 4 4 5 5 6 7 8 8 5 3 3 2 2 2 3 3 3 3 3 2 1 1 1 2 3 3 3 3 3
2 4 4 4 3 3 3 3 3 3 3 3 3 3 3 3 4 4 5 6 7 7 7 6 5 4 4 4 3 3 3 4 4 5 4 3 2 3 3 3 4 4 4
2 4 5 5 4 3 3 4 4 4 4 4 4 4 4 4 3 3 4 6 6 6 7 7 6 6 5 5 4 3 3 3 4 5 5 4 3 2 3 3 4 4 4
2 5 7 7 6 5 6 6 6 6 6 6 6 6 6 6 5 5 6 6 6 6 6 7 8 7 6 5 4 4 4 3 3 4 5 5 4 3 3 3 3 3 2
4 6 8 8 9 8 9 9 9 8 8 8 8 8 8 8 8 8 8 7 6 6 5 7 9 9 7 6 6 6 5 4 4 4 4 4 5 5 5 4 2 1 0
6 8 9 9 10 10 10 10 10 9 9 10 10 10 9 9 10 10 9 9 7 6 7 8 9 10 10 9 8 7 7 6 6 5 4 4 5 6 5 3 1 0 0
7 7 9 9 9 10 10 10 10 10 10 10 10 10 10 9 9 9 9 9 8 8 9 10 11 12 12 12 11 10 9 9 8 7 6 5 5 4 2 1 1 1 1
6 7 7 9 10 10 11 11 12 11 11 10 10 10 9 8 8 8 9 9 9 9 10 11 12 13 14 14 13 11 10 10 9 7 6 5 4 3 1 1 1 2 2
6 6 6 8 11 13 13 13 13 14 12 10 10 10 10 10 8 8 9 10 10 10 10 11 12 12 12 12 11 10 10 10 8 7 6 5 3 2 2 1 1 1 1
6 5 6 9 13 15 15 14 15 15 13 11 10 11 12 12 10 9 9 10 11 11 11 11 10 11 12 11 10 9 9 8 7 7 7 4 3 3 2 1 0 1 1
6 6 7 11 14 16 16 16 15 14 13 12 13 13 13 13 12 11 10 10 11 12 11 10 10 11 12 13 11 9 7 5 4 5 5 4 3 3 3 1 1 1 1
8 8 11 14 15 15 16 17 16 15 15 14 14 14 14 13 13 12 11 10 10 11 9 8 9 10 11 12 10 8 6 3 2 2 3 3 3 3 3 3 2 2 2
11 12 13 15 16 17 17 17 17 17 16 15 14 15 16 14 14 12 11 10 10 11 9 8 8 8 9 9 8 7 6 4 1 0 1 1 2 3 3 3 3 3 3
16 16 16 16 17 18 18 17 17 16 15 13 13 15 15 14 13 11 10 10 10 11 10 9 9 8 7 7 7 7 7 5 1 0 0 0 1 2 3 3 3 3 3
21 21 20 19 20 20 18 16 15 14 12 11 12 13 12 12 12 11 11 11 11 11 10 9 8 7 6 6 7 8 8 6 3 1 0 0 0 1 2 2 2 2 1
27 27 25 23 23 23 21 17 15 12 10 9 10 10 9 9 10 12 13 15 14 12 9 8 7 6 5 5 7 9 9 8 6 2 0 0 0 0 1 1 1 1 0
30 30 28 26 26 26 25 22 19 14 10 9 8 7 6 7 8 10 13 15 15 12 8 6 4 4 4 4 5 7 8 9 7 3 0 0 0 0 0 0 0 0 0
31 30 29 27 25 24 23 23 21 15 10 7 5 5 5 6 7 9 11 13 12 9 7 4 2 2 2 2 3 3 5 8 8 5 2 0 0 0 0 0 0 0 0
30 29 27 24 21 18 17 18 18 15 10 6 5 4 6 6 6 7 8 8 8 7 6 3 1 0 0 1 1 1 3 6 8 6 5 2 1 1 0 0 0 0 0
25 25 23 20 17 13 12 12 14 15 12 8 7 6 6 5 4 3 3 4 5 5 5 3 1 0 0 0 0 0 1 4 6 7 7 6 4 3 2 1 1 1 0
20 19 18 17 16 13 10 8 11 14 13 11 9 8 6 5 3 1 0 1 1 2 3 3 2 1 0 0 0 0 1 3 4 5 6 7 8 6 4 3 3 2 1
15 16 16 16 16 13 9 5 7 10 12 11 11 10 8 6 5 3 2 1 1 1 1 2 2 1 0 1 1 1 2 2 3 4 5 7 9 8 5 4 3 3 3
15 14 14 14 16 14 8 4 4 8 11 11 11 11 10 8 5 5 5 4 3 2 1 1 1 1 0 1 2 2 1 1 1 3 5 8 8 7 4 3 3 3 3
18 16 15 16 17 15 9 4 4 8 11 12 11 10 9 7 4 4 5 5 5 5 2 1 1 0 0 1 1 1 1 1 1 3 6 8 7 5 3 3 3 3 3
20 19 18 19 20 17 10 4 4 8 12 12 11 9 6 5 3 2 3 5 6 6 4 2 1 0 0 0 0 0 1 2 3 4 6 7 5 4 3 3 3 3 3

GEFSMA_con_probscp_312.txt.gz
Probability
4 3 2 2 3 3 4 6 7 7 6 5 4 3 3 3 3 3 5 7 9 9 9 9 9 8 7 7 6 6 6 5 4 4 2 1 0 0 0 0 0 0 0
6 5 4 4 4 4 5 6 7 8 7 6 4 3 3 3 3 3 4 6 7 8 8 9 9 9 8 8 7 7 6 6 5 5 4 3 2 1 1 1 0 0 0
10 10 8 6 6 7 8 7 6 7 7 6 5 4 3 4 3 3 3 4 6 6 8 9 9 9 9 9 8 8 7 6 5 4 4 5 4 3 2 2 1 0 0
14 13 11 7 6 8 10 8 6 5 5 5 5 4 4 5 4 4 3 4 5 6 8 10 11 11 10 10 9 9 8 7 5 4 4 5 4 3 3 3 2 1 0
14 14 11 8 6 7 9 9 7 6 6 5 5 5 5 6 6 6 5 5 7 8 10 11 13 12 11 11 11 10 10 9 8 7 6 4 3 3 3 2 2 1 1
11 12 11 9 7 7 9 10 9 7 7 6 6 6 6 6 7 8 8 8 10 11 13 15 15 14 13 12 12 13 12 11 11 10 8 6 5 5 4 3 2 1 0
9 10 9 8 7 8 10 11 11 9 8 7 6 6 5 5 7 9 10 10 11 13 15 17 18 16 15 13 13 13 14 13 13 11 9 8 8 8 7 5 3 1 1
10 8 7 6 6 8 11 12 11 10 9 9 8 7 5 5 5 7 10 12 12 14 15 16 17 16 15 14 13 12 12 13 13 11 9 8 9 9 8 7 5 3 2
13 10 9 9 8 9 11 12 11 11 11 10 10 9 8 8 6 7 10 11 13 15 14 14 14 13 13 15 15 11 10 12 13 12 10 9 9 9 8 7 6 5 4
15 14 14 15 15 13 12 12 12 12 13 13 13 14 14 12 10 9 9 9 11 13 13 12 11 10 12 15 16 12 10 11 13 13 12 11 11 10 9 7 7 6 5
17 17 18 21 22 20 17 17 17 17 16 15 15 15 16 14 11 9 8 8 8 10 12 12 10 10 13 15 14 11 9 9 10 12 13 13 13 12 10 7 6 6 6
21 19 20 24 27 27 25 24 24 22 19 17 15 14 13 11 9 9 8 6 6 7 11 12 11 11 13 13 12 10 8 7 6 7 9 11 12 12 10 8 6 5 6
24 23 23 27 30 31 30 29 27 25 21 19 15 12 11 9 8 9 9 7 5 6 8 11 12 13 14 13 10 9 7 4 2 2 5 7 9 10 10 8 6 4 4
25 27 28 29 30 31 31 30 28 25 24 22 16 12 10 10 10 10 10 8 6 5 6 10 13 14 14 13 9 7 6 3 0 0 1 3 6 7 8 7 5 4 3
27 30 31 31 30 29 28 28 27 24 23 22 17 13 12 12 11 10 10 9 8 7 7 8 11 12 13 11 7 7 6 3 0 0 0 1 3 5 6 6 5 3 3
32 34 34 32 31 28 26 26 25 24 21 20 19 15 13 12 10 9 9 9 8 7 7 7 8 9 9 7 6 6 5 2 1 0 0 0 1 3 4 5 5 3 1
39 39 38 36 32 28 26 25 25 24 24 23 22 20 16 11 8 9 9 9 7 6 6 5 6 8 7 5 5 6 4 1 1 1 0 0 0 1 2 3 3 2 0
42 42 41 38 34 30 27 26 24 25 25 24 24 23 19 14 10 10 10 9 8 7 6 6 6 7 8 6 5 4 3 2 2 1 0 0 0 0 1 1 1 0 0
44 44 43 39 35 32 29 26 23 22 22 21 21 21 20 17 14 12 11 10 9 9 9 8 8 8 8 7 5 4 3 4 3 2 1 0 0 0 0 0 0 0 0
40 41 41 37 34 30 26 24 23 21 19 17 17 19 19 17 13 11 10 10 9 9 10 10 8 8 9 8 6 4 4 5 5 3 1 0 0 0 0 0 0 0 0
34 37 37 33 29 23 19 19 21 20 18 16 16 17 15 12 9 7 7 7 7 8 9 9 8 8 9 8 5 2 2 3 3 2 1 0 1 1 1 1 1 0 0
33 33 33 29 25 19 15 14 16 19 20 19 19 18 14 9 6 5 4 3 3 5 6 7 8 8 8 8 6 3 2 2 1 1 0 0 1 2 2 2 2 1 0
32 31 29 27 25 20 14 10 10 16 20 21 22 21 18 14 10 7 5 3 3 3 4 6 8 9 9 8 7 6 6 4 3 2 1 0 1 1 1 2 2 1 0
32 29 27 26 24 20 13 7 6 11 19 23 25 25 24 21 16 12 9 7 6 4 3 4 5 7 7 6 6 6 7 6 7 6 4 2 1 1 1 1 1 0 0
32 29 25 23 22 19 13 6 5 10 18 24 27 27 25 22 17 13 12 12 9 7 5 3 3 3 3 3 3 4 5 7 7 7 6 5 3 2 1 2 2 1 1
31 27 22 20 20 19 13 6 4 11 18 24 28 27 24 19 14 11 13 13 11 9 7 5 2 1 1 1 2 3 4 6 6 7 8 7 5 4 3 3 3 2 2

GEFSMA_con_probscp_318.txt.gz
Probability
5 5 5 4 3 3 3 3 3 3 3 3 3 3 3 3 3 3 3 3 3 4 6 6 6 6 5 5 4 2 0 0 0 0 0 0 0 0 0 0 0 0 0
2 3 4 3 3 3 3 3 3 3 3 3 3 3 3 3 3 3 3 3 3 4 6 6 6 6 6 6 5 3 2 1 1 0 0 0 0 0 0 0 0 0 0
1 2 3 3 3 3 3 3 3 3 3 3 3 3 3 3 3 3 3 3 3 4 5 6 6 6 6 6 6 6 5 4 3 2 1 1 0 0 0 0 0 0 0
0 1 2 2 2 1 1 3 3 3 3 3 3 3 3 3 4 4 4 3 3 3 4 4 5 6 7 7 7 6 6 6 5 4 3 2 1 1 1 0 0 0 0
0 1 1 1 1 0 1 2 3 3 3 3 3 3 3 4 4 4 4 4 3 3 3 3 4 6 7 9 8 7 7 7 7 6 4 4 3 3 2 1 1 0 0
1 1 0 0 0 0 0 1 3 3 3 3 3 3 3 3 4 4 4 3 2 2 3 3 3 5 7 10 10 8 7 9 9 7 5 5 5 4 3 3 2 1 0
2 1 1 1 0 0 0 1 2 3 3 3 3 3 3 3 3 4 4 3 2 2 2 3 4 4 5 8 9 9 8 9 9 8 6 6 6 6 4 3 3 2 1
4 3 3 2 1 0 0 1 2 3 3 3 3 2 3 3 4 4 4 4 3 2 2 3 4 4 4 6 7 7 9 9 8 7 6 6 6 6 5 4 3 3 3
5 5 4 3 2 1 1 1 3 3 3 3 3 3 3 3 3 4 4 4 4 3 1 2 4 4 4 4 5 6 8 8 7 6 6 5 6 5 4 3 3 3 3
5 5 4 3 3 3 3 3 3 3 3 3 3 3 3 3 3 3 3 4 3 3 2 1 1 2 4 4 4 4 5 6 7 8 7 6 6 5 4 4 3 3 3
6 6 5 4 4 4 5 5 4 4 4 3 3 4 4 4 4 4 3 3 3 3 3 2 1 2 3 4 4 3 3 3 5 7 7 7 7 8 7 6 4 3 2
9 8 6 6 6 7 7 6 6 6 5 5 5 5 6 6 6 5 4 3 3 3 3 2 3 3 3 3 3 2 1 1 2 3 5 6 7 8 9 8 6 4 3
13 10 9 9 9 10 10 9 8 7 8 8 7 7 6 6 6 6 4 3 3 2 1 1 3 4 3 2 1 1 0 0 0 0 2 3 4 5 6 6 5 4 4
15 13 11 11 11 12 14 13 11 10 11 10 8 6 6 5 5 6 5 4 3 2 1 1 2 3 3 1 0 0 0 0 0 0 0 1 1 2 3 3 3 3 3
13 13 13 12 12 14 16 17 15 14 13 11 8 6 5 3 4 4 4 3 3 3 2 2 3 3 3 1 1 0 0 0 0 0 0 0 0 1 1 1 1 1 1
11 12 13 12 12 14 17 18 17 16 15 12 8 6 4 3 4 4 4 3 3 3 3 3 3 3 3 2 1 0 0 0 0 0 0 0 0 0 0 0 0 0 0
12 12 12 11 12 14 17 18 18 17 15 11 8 6 4 5 6 5 4 3 3 3 3 3 2 2 2 2 1 0 0 0 0 0 0 0 0 0 0 0 0 0 0
12 10 9 10 12 14 16 18 17 16 14 11 8 7 6 6 7 7 5 4 3 3 2 1 1 0 1 1 0 0 0 0 0 0 0 0 0 0 0 0 0 0 0
11 10 8 8 10 13 16 17 16 15 13 10 8 8 8 7 7 8 7 5 4 3 1 0 0 0 0 0 0 0 0 0 0 0 0 0 0 0 0 0 0 0 0
13 11 9 8 9 11 13 14 13 12 11 9 8 8 7 6 6 8 8 6 5 3 1 0 0 0 0 0 0 0 0 0 0 0 0 0 0 0 0 0 0 0 0
17 15 12 11 9 8 9 9 9 9 10 10 8 6 6 5 4 5 6 5 4 3 2 1 1 1 0 0 0 0 0 0 0 0 0 0 0 0 0 0 0 0 0
21 17 13 11 9 7 7 7 7 8 11 11 8 5 5 5 4 3 3 3 3 3 3 3 2 2 1 1 0 0 0 0 0 0 0 0 0 0 0 0 0 0 0
18 15 12 10 9 7 6 5 5 6 9 9 7 4 4 4 4 2 1 1 1 2 3 3 3 3 3 2 1 1 0 0 0 0 0 0 0 0 0 0 0 0 0
13 12 11 10 9 7 5 3 2 3 6 6 5 4 3 3 3 1 0 0 0 2 3 3 3 3 3 3 3 2 1 0 0 0 0 0 0 0 0 0 0 0 0
12 13 12 11 10 7 4 2 1 1 3 3 3 2 2 2 2 1 0 0 0 1 2 1 2 2 2 2 3 3 2 1 1 0 0 0 0 0 0 0 0 0 0
13 13 13 12 11 8 4 2 1 0 1 1 1 1 1 1 1 0 0 0 0 0 1 1 1 1 1 1 2 3 3 2 2 1 0 0 0 0 0 0 0 0 0

GEFSMA_con_probscp_324.txt.gz
Probability
0 0 0 0 1 2 3 3 3 3 3 3 3 3 3 3 3 3 3 3 3 3 3 3 3 3 3 3 3 3 3 2 2 3 3 3 1 1 2 3 3 3 3
0 0 0 0 1 2 3 3 3 3 3 3 3 3 3 3 4 4 4 4 3 3 3 3 3 3 3 3 3 3 3 3 3 4 4 4 2 2 3 3 3 3 3
0 0 0 0 1 2 3 3 3 3 3 3 3 3 3 4 5 5 5 5 4 3 3 3 3 3 3 3 3 3 3 4 5 6 6 6 4 4 4 3 3 3 3
0 0 0 0 0 1 1 2 3 3 3 3 3 3 3 4 4 4 5 6 5 4 3 2 3 3 3 3 3 3 3 4 4 6 7 7 6 6 5 4 3 3 3
0 0 0 0 0 0 0 1 2 3 3 3 3 3 3 2 2 3 5 5 5 4 3 2 2 2 3 3 3 3 4 4 4 4 5 6 7 7 6 5 4 3 3
0 0 0 0 0 0 0 0 1 1 2 1 1 3 3 2 2 2 4 5 5 4 3 2 1 1 1 3 3 4 4 4 4 3 4 6 7 7 6 4 4 4 4
0 0 0 0 0 0 0 0 0 1 2 1 1 3 3 3 2 2 3 5 5 4 3 2 0 0 1 3 4 5 5 5 5 5 6 8 9 8 5 4 4 5 5
1 1 1 1 0 0 0 1 1 3 3 3 3 3 3 3 3 1 2 4 5 3 2 1 0 0 2 3 4 5 6 6 7 6 8 10 10 9 6 4 5 6 6
2 2 2 1 0 0 1 2 4 5 4 4 3 3 3 3 3 2 1 2 2 1 1 0 0 0 1 3 3 4 5 7 6 5 6 9 9 8 7 6 6 7 7
1 1 1 1 1 2 3 4 5 6 6 5 4 3 3 3 3 2 1 0 0 0 0 0 0 0 1 2 4 4 5 5 4 3 3 5 7 7 7 6 6 6 6
0 0 1 1 2 4 5 4 5 6 7 7 6 4 3 3 4 3 1 0 0 0 0 0 0 0 0 1 3 4 3 2 2 2 2 2 4 5 5 5 4 4 4
0 1 2 2 3 5 6 5 6 8 9 9 8 7 6 5 5 4 1 0 0 0 0 0 0 0 0 0 1 2 1 1 1 2 2 2 2 3 4 4 4 3 3
0 1 2 3 3 4 6 7 7 9 10 10 10 11 10 9 7 5 3 1 0 0 0 0 0 0 0 0 0 0 0 0 0 1 1 1 1 2 3 4 3 3 3
1 1 2 2 3 4 6 7 9 10 10 11 11 12 12 11 9 7 5 3 1 0 0 0 0 0 0 0 0 0 0 0 0 0 0 0 1 1 1 2 2 3 3
4 3 2 1 1 3 6 8 9 10 12 12 13 12 11 10 9 9 8 6 3 1 1 1 1 0 0 0 0 1 0 0 0 0 0 0 0 0 0 0 1 2 2
6 5 3 2 1 3 6 8 8 10 12 12 12 11 10 9 8 8 8 6 4 3 3 3 2 1 0 0 0 0 0 0 0 0 0 0 0 0 0 0 0 1 1
6 5 3 2 2 3 6 6 7 9 10 10 10 9 9 8 7 5 5 4 3 4 5 5 3 1 0 0 0 0 0 0 0 0 0 0 0 0 0 0 0 0 0
7 6 4 2 2 3 5 6 7 9 9 8 8 8 8 6 4 3 4 4 4 4 6 6 4 1 0 0 0 0 0 0 0 0 0 0 0 0 0 0 0 0 0
9 7 6 5 5 6 8 9 10 11 10 9 8 8 7 5 3 4 5 5 4 5 6 6 4 1 0 0 0 0 0 0 0 0 0 0 0 0 0 0 0 0 0
11 9 8 9 10 10 10 10 11 12 12 11 9 8 7 6 5 5 5 4 3 3 5 5 3 1 0 0 0 0 0 0 0 0 0 0 0 0 0 0 0 0 0
11 9 8 9 10 10 8 8 9 11 12 11 10 9 7 6 5 5 4 3 2 1 3 3 2 1 0 0 0 0 0 0 0 0 0 0 0 0 0 0 0 0 0
11 9 7 7 7 7 6 4 5 7 9 9 9 9 8 6 5 3 2 2 1 1 1 1 2 1 1 0 0 0 0 0 0 0 0 0 0 0 0 0 0 0 0
10 8 6 5 6 6 5 4 3 5 7 7 8 8 8 7 6 4 2 0 0 0 0 1 2 2 2 1 0 0 0 0 0 0 0 0 0 0 0 0 0 0 0
10 9 8 7 7 7 6 4 3 5 6 6 7 6 6 5 5 5 3 1 1 0 0 0 1 1 1 1 0 0 0 0 1 0 0 0 0 0 0 0 0 0 0
12 10 9 9 8 8 6 4 3 5 6 6 6 6 4 3 4 3 3 2 1 0 0 0 0 0 0 0 0 0 1 1 1 1 0 0 0 1 1 0 0 0 0
13 11 10 9 8 7 5 3 3 5 6 6 6 6 4 3 3 2 2 2 1 0 0 0 0 0 0 0 0 1 2 2 2 2 1 0 1 2 2 1 0 0 0

GEFSMA_con_probscp_330.txt.gz
Probability
7 8 9 9 7 7 8 7 5 5 4 4 3 3 4 4 3 3 3 3 4 4 5 4 2 1 0 1 2 4 4 4 4 5 5 3 1 1 0 0 0 0 0
7 7 7 6 6 7 7 6 5 5 6 5 3 3 4 4 4 4 4 4 4 5 5 4 3 1 0 0 1 2 4 5 6 6 6 5 3 2 1 1 1 0 1
6 6 5 4 4 5 6 6 5 6 7 7 4 3 4 5 5 4 4 4 4 5 5 4 3 2 1 1 1 3 5 7 7 7 6 6 5 4 3 3 2 2 2
5 5 5 4 3 4 5 5 6 6 7 8 7 5 4 5 5 4 3 3 3 4 4 3 3 3 2 2 2 4 7 9 8 8 7 7 6 6 5 4 3 3 3
3 4 4 4 3 4 4 5 6 7 7 7 8 7 5 4 4 3 1 1 2 2 2 2 2 2 2 2 2 4 7 10 10 9 8 7 7 7 7 6 4 2 2
2 3 4 4 3 3 4 5 7 7 6 7 7 7 5 3 3 2 1 0 1 1 2 3 3 2 2 2 2 2 5 9 10 9 8 8 9 9 9 8 7 5 3
3 3 3 4 4 3 4 6 6 5 5 6 7 6 4 3 2 2 1 0 0 1 2 3 4 3 3 2 1 1 4 7 10 9 7 7 9 9 10 9 9 9 7
3 3 4 5 5 4 5 6 6 4 4 5 6 5 4 3 3 2 1 0 1 1 1 1 2 2 2 2 1 1 2 5 8 8 7 7 7 7 8 8 8 9 9
3 3 4 5 5 6 6 6 6 5 5 6 7 7 6 5 4 3 1 1 2 2 1 0 0 1 1 2 1 1 1 2 4 5 6 7 6 6 7 6 6 7 7
2 3 3 4 4 5 4 5 6 6 6 7 10 10 8 7 6 4 3 3 3 3 2 2 2 2 3 4 4 1 0 0 1 2 5 6 5 6 6 6 6 6 6
2 2 4 4 5 5 5 5 6 7 7 9 10 11 10 9 9 8 7 6 5 4 4 4 4 5 6 7 5 2 0 0 0 1 3 4 3 4 5 5 5 5 4
2 3 5 6 8 9 8 8 9 9 10 10 11 11 11 12 12 12 11 10 9 7 6 7 7 7 7 7 4 1 0 0 0 0 1 1 1 2 3 4 4 4 4
2 3 5 6 8 10 12 12 12 12 13 14 15 15 14 13 13 14 14 13 12 9 7 8 8 6 5 6 5 1 0 0 0 0 0 0 0 1 2 3 3 3 3
3 5 7 7 8 10 11 13 14 14 15 17 18 19 17 16 15 15 15 14 13 10 8 7 7 6 5 5 4 2 1 0 0 0 0 0 0 1 1 2 2 1 1
9 10 11 10 10 10 11 13 14 15 16 17 18 18 16 15 15 14 14 15 13 10 8 7 6 6 6 6 5 4 3 1 0 0 0 0 0 0 0 1 2 1 0
14 14 14 13 13 12 13 14 14 14 14 14 14 14 13 12 12 12 13 13 12 10 8 7 6 5 6 7 7 6 5 2 0 0 0 0 0 0 0 1 1 1 0
16 16 15 15 15 16 17 17 15 13 12 11 10 10 10 9 9 10 11 11 10 9 8 7 6 6 8 8 7 7 5 3 1 0 0 0 0 0 0 0 0 0 0
15 15 15 15 16 17 19 21 19 16 14 12 9 9 10 10 10 10 11 11 11 11 9 7 7 9 11 10 8 7 6 4 2 1 0 0 0 0 0 0 0 0 0
14 14 14 14 14 15 18 20 19 18 17 14 11 10 11 13 14 13 13 13 14 13 11 9 9 11 12 12 10 8 7 6 3 1 0 0 0 0 0 0 0 0 0
11 11 12 12 12 14 16 17 16 16 16 14 12 11 12 15 15 14 13 14 14 14 13 12 12 12 12 12 10 8 7 6 4 2 1 2 1 0 0 0 0 0 0
8 9 10 12 12 13 14 13 13 14 14 13 12 11 11 12 12 11 10 11 12 12 12 12 12 11 11 11 10 7 6 6 6 5 5 5 4 3 2 2 1 0 0
9 10 11 12 13 12 9 8 9 12 13 14 13 11 11 9 9 8 7 6 6 7 8 9 10 10 11 12 11 8 7 7 8 9 8 7 6 5 6 5 2 0 0
11 11 11 11 11 9 4 2 4 8 11 12 12 13 11 9 8 9 8 5 5 4 5 6 8 9 11 12 12 10 10 9 10 10 9 6 5 6 6 5 2 0 0
12 12 10 8 8 5 2 0 2 5 8 9 10 12 12 9 8 9 11 10 10 7 4 4 5 6 9 10 11 11 11 10 8 8 8 6 5 4 3 3 1 0 0
14 13 10 6 4 2 0 0 1 3 6 6 8 10 10 9 9 10 12 15 14 12 7 4 3 3 6 7 8 10 10 8 7 7 7 6 4 3 2 1 1 1 0
14 13 10 6 2 0 0 0 1 3 5 6 7 9 9 9 9 10 13 16 16 13 10 6 2 2 4 5 5 8 10 9 7 7 8 6 4 2 1 2 2 2 1